Sally Plumb Plumb

Veteran Poet - 1,731 Points (23 9 1940 / Haverhill Suffolk England)

Stats

» Click to list general statistics » OR, select a date :

General Statistics

Visitors of the poet

Number of visitors of the poet’s mainpage in PoemHunter.Com

Attention : Numbers in this table does not indicate the total hits of poems of the poet, but indicates the hits of the poet’s main page.

Date Hits
07/27/2015 Monday 182
86%
07/26/2015 Sunday 166
78%
07/25/2015 Saturday 149
70%
07/24/2015 Friday 204
96%
07/23/2015 Thursday 110
52%
07/22/2015 Wednesday 173
81%
07/21/2015 Tuesday 202
95%
07/20/2015 Monday 177
83%
07/19/2015 Sunday 181
85%
07/18/2015 Saturday 195
92%
07/17/2015 Friday 194
91%
07/16/2015 Thursday 140
66%
07/15/2015 Wednesday 141
66%
07/14/2015 Tuesday 127
60%
07/13/2015 Monday 127
60%
07/12/2015 Sunday 92
43%
07/11/2015 Saturday 95
45%
07/10/2015 Friday 99
46%
07/09/2015 Thursday 105
49%
07/08/2015 Wednesday 211
100%

Reader rating & num.of MyPoemList’s

Click the captions of columns to change the order.

# Poem Title Submit Date Reader Rating Num.of MyPoemList’s
Rating Num.R.
1 United 06/27/2015 -- 0 0
2 Sacrifice 06/27/2015 -- 0 0
3 Prayer For Night 06/27/2015 -- 0 0
4 Rocker Song 03/31/2015 -- 0 0
5 Nightwatch 11/04/2014 10.0 1 0
6 A Boy And A Frog (Kids Stuff) 10/23/2014 -- 0 1
7 The Slow Walk 08/09/2014 10.0 1 0
8 After 08/08/2014 -- 0 0
9 The Contest 06/05/2014 -- 0 0
10 Barn Owl 05/09/2014 10.0 1 0
11 Listen 05/08/2014 -- 0 0
12 Harmony 05/07/2014 10.0 1 0
13 Conflict 02/24/2014 10.0 2 0
14 Confession 02/11/2014 -- 0 0
15 Night Bird 02/07/2014 -- 0 0
16 Ebb Tide 02/03/2014 10.0 1 0
17 Many Hollows 01/03/2014 7.5 2 0
18 Night Ways 01/02/2014 -- 0 0
19 The Lion 01/01/2014 7.0 1 0
20 The Appointment 12/24/2013 -- 0 0
21 Flippancy 12/22/2013 9.0 2 0
22 Hit 12/21/2013 10.0 1 0
23 Negativity 11/11/2013 10.0 2 0
24 Too Old 10/28/2013 10.0 3 0
25 Three Phases 09/28/2013 10.0 1 0
26 Frightened Fourteen (Kids Stuff) 09/27/2013 10.0 1 0
27 Killing Time 09/23/2013 8.5 2 0
28 Rumour 08/30/2013 -- 0 0
29 Separation 08/14/2013 10.0 3 2
30 Shades Of Love 08/01/2013 10.0 4 1
31 Getting Fat 06/28/2013 9.7 3 0
32 Infinity 05/08/2013 9.9 9 1
33 Twilight 03/30/2013 10.0 4 2
34 Mind Healer 03/19/2013 9.5 2 0
35 Mute 03/18/2013 9.5 4 0
36 Down The Drain 03/07/2013 9.7 3 0
37 Monday Morning 03/06/2013 10.0 1 0
38 Imagination 03/05/2013 10.0 1 0
39 Earth Fire 12/08/2012 10.0 1 0
40 Nightmare 10/20/2012 10.0 2 0
41 Workday Weekday 10/17/2012 -- 0 0
42 Remorse 10/07/2012 -- 0 0
43 High Hopes 10/06/2012 -- 0 0
44 Lost For Words 10/04/2012 10.0 1 0
45 Confused? 08/15/2012 -- 0 0
46 Breakdown 08/14/2012 10.0 4 0
47 Departure 08/07/2012 10.0 2 0
48 Seagull 07/11/2012 10.0 4 0
49 Late Friday Night 06/29/2012 9.7 3 0
50 Rig Divers North Sea 06/28/2012 -- 0 0
51 Gossips 06/27/2012 10.0 3 0
52 Another Shade Of Blue 06/27/2012 10.0 5 1
53 Score 04/22/2012 10.0 2 0
54 Request 04/21/2012 10.0 1 0
55 Tough Love 04/18/2012 10.0 3 0
56 Stairway 03/23/2012 10.0 1 0
57 Wind And Rain 02/20/2012 10.0 3 0
58 Dawn 02/09/2012 -- 0 0
59 Defeat 02/08/2012 10.0 2 0
60 Jack Spratt 12/27/2011 9.7 3 0
61 Beyond 12/06/2011 -- 0 0
62 Undressed 12/05/2011 -- 0 0
63 Letter 11/28/2011 10.0 1 0
64 Fantasia 11/24/2011 -- 0 0
65 Betrayel 11/22/2011 -- 0 0
66 Grandmama 11/21/2011 -- 0 0
67 Crimes 11/01/2011 9.7 3 0
68 Swing High Swing Low 10/07/2011 10.0 1 1
69 Destiny 10/05/2011 10.0 1 0
70 Silken Thread 10/02/2011 -- 0 0
71 Seeing You 10/01/2011 10.0 1 0
72 Fractions 09/30/2011 -- 0 0
73 Question 09/28/2011 -- 0 0
74 Birth 09/09/2011 -- 0 0
75 The Voice Of Seduction 09/07/2011 -- 0 0
76 Second Depression 08/10/2011 -- 0 0
77 Crumbs 08/06/2011 10.0 1 0
78 Night Sky 07/08/2011 9.0 2 0
79 The Social Divide 07/04/2011 -- 0 0
80 Retort 07/01/2011 10.0 1 0
81 Mr Jones 06/15/2011 -- 0 0
82 Bitter Beginning 06/13/2011 -- 0 0
83 Imagine 06/03/2011 -- 0 0
84 Gabriel 06/02/2011 -- 0 0
85 The Shift Worker 05/25/2011 8.0 1 0
86 Downtown 05/20/2011 -- 0 0
87 Skin 05/19/2011 -- 0 0
88 Natural Tempo 05/18/2011 10.0 2 0
89 Magical Night 04/14/2011 10.0 1 0
90 Conversation 04/12/2011 -- 0 0
91 Aunt Summer Rose (Kids Stuff) 04/08/2011 -- 0 0
92 Eden's Gate 04/07/2011 -- 0 0
93 First Season 03/29/2011 -- 0 0
94 November 03/09/2011 10.0 1 0
95 Chores 03/08/2011 10.0 1 0
96 Torment 03/05/2011 -- 0 0
97 Over Time 02/19/2011 -- 0 0
98 The Thaw 02/18/2011 10.0 1 0
99 Jukes Song 02/14/2011 -- 0 0
100 Thinks Party 02/12/2011 10.0 2 1
101 Predator 02/11/2011 -- 0 0
102 Headless 02/08/2011 6.0 1 0
103 Annie May 01/06/2011 10.0 1 0
104 Look 01/05/2011 -- 0 0
105 Slough Of Despond 12/11/2010 10.0 2 0
106 The Dryad 12/04/2010 -- 0 0
107 Christmas Day 12/03/2010 10.0 1 0
108 Snake Skin 12/01/2010 10.0 1 0
109 Opposition 11/12/2010 -- 0 0
110 Natures Way 10/13/2010 -- 0 0
111 Bad Rivers 10/12/2010 10.0 3 0
112 Calling Wind 10/01/2010 9.8 4 0
113 Decision 09/23/2010 10.0 1 0
114 Passing Tedious Time 08/26/2010 -- 0 0
115 Zero 08/10/2010 10.0 3 0
116 1957 08/04/2010 9.5 4 0
117 Singing Lesson 08/02/2010 -- 0 0
118 Evening At Home 06/29/2010 10.0 2 0
119 Not Tonight 06/28/2010 -- 0 0
120 6 P.M. 06/08/2010 9.5 2 0
121 Orange 06/01/2010 10.0 1 0
122 Yellow Iris 05/23/2010 10.0 1 0
123 Shower 05/22/2010 -- 0 0
124 Reunion 05/17/2010 -- 0 0
125 Shadow 05/16/2010 10.0 1 0
126 Explanation 05/15/2010 -- 0 0
127 Spirit 05/14/2010 10.0 2 1
128 The Haunted 05/13/2010 10.0 1 0
129 Live Music 05/13/2010 10.0 1 0
130 Wren 03/13/2010 10.0 1 0
131 Spring Weather 03/12/2010 -- 0 0
132 Breathing 02/09/2010 10.0 3 1
133 Unfamiliar Fantasy 01/22/2010 10.0 1 0
134 Climate Change 12/26/2009 10.0 1 0
135 Missing Person 12/25/2009 -- 0 0
136 Languor 12/24/2009 10.0 1 0
137 Side Affects 12/23/2009 10.0 2 0
138 Unspeakable 12/22/2009 10.0 1 0
139 Summer 12/14/2009 10.0 1 0
140 High 12/12/2009 -- 0 0
141 Speechless 12/05/2009 10.0 2 1
142 Insight 11/14/2009 10.0 3 0
143 The Haunted Sea (Kids Stuff) 11/05/2009 10.0 2 0
144 Flight 10/15/2009 10.0 3 0
145 Ripple 10/09/2009 10.0 1 0
146 Perfect Silence 10/07/2009 8.9 7 1
147 Starters 10/02/2009 10.0 1 0
148 Pastel 09/24/2009 10.0 3 0
149 Sleep 09/18/2009 10.0 4 0
150 Spirit Wings 09/07/2009 10.0 1 0
151 Annoyance 09/05/2009 10.0 3 0
152 Lyric 09/02/2009 10.0 3 0
153 Weeping Willow 08/29/2009 9.5 2 3
154 Ritual 08/12/2009 10.0 1 0
155 Enrichment 08/10/2009 10.0 1 0
156 Recruit 07/30/2009 10.0 1 0
157 Bebe 07/29/2009 10.0 3 1
158 Music 07/28/2009 10.0 2 0
159 Saturday Night And Sunday Morning 07/22/2009 -- 0 1
160 The Red Indian 07/10/2009 10.0 1 0
161 Be Kind Be Sweet 07/08/2009 9.5 2 1
162 Late Afternoon 07/07/2009 10.0 1 0
163 Left Undead 07/06/2009 -- 0 0
164 Cloud 07/02/2009 10.0 3 2
165 Foxglove 06/28/2009 10.0 1 0
166 The Chain 06/17/2009 -- 0 0
167 Song Of A Dying Infant 06/03/2009 10.0 1 0
168 Confrontation (Darfur) 05/29/2009 10.0 5 0
169 Late Summer 05/18/2009 -- 0 1
170 A Question Of God 05/17/2009 9.6 11 1
171 Death Of A Woman 05/12/2009 10.0 3 0
172 Angels 05/09/2009 10.0 6 1
173 A Dark Fire 05/08/2009 10.0 6 1
174 Fight 05/07/2009 10.0 2 0
175 We Are 05/06/2009 10.0 3 0
176 Shadow Street 05/05/2009 7.3 3 0
177 Rendezvous 05/04/2009 9.5 2 0
178 Lifting 05/03/2009 10.0 1 0
179 A Humorous Death 05/02/2009 10.0 10 3
180 Thought 05/01/2009 9.5 4 0
181 Leaving 04/30/2009 -- 0 0
182 The Queue 04/29/2009 10.0 1 0
183 Granpa 04/28/2009 10.0 1 0
184 Two Confused 04/27/2009 10.0 1 1
185 Breakfast 04/26/2009 9.7 7 1
186 Happiness Is Sacred 04/25/2009 10.0 1 0
187 Crucible 04/24/2009 9.7 3 0
188 Valentine 04/23/2009 10.0 2 1
189 Hettie 04/06/2009 10.0 2 0
190 Six A.M. 04/04/2009 -- 0 0
191 Diary 04/01/2009 9.3 3 2
192 Possession 03/31/2009 10.0 1 1
193 Pretence 03/30/2009 10.0 1 1
194 Sundial 03/29/2009 7.5 4 0
195 Sleep My Love 03/28/2009 10.0 2 2
196 Reynard 03/27/2009 -- 0 0
197 Lucifer 03/26/2009 -- 0 0
198 Picture 03/25/2009 10.0 1 2
199 Dream On 03/24/2009 10.0 1 2
200 Something Plus 03/23/2009 -- 0 1
201 Love 03/22/2009 10.0 1 0
202 Curse 03/21/2009 -- 0 0
203 Solitude 03/20/2009 10.0 1 1
204 Anger 03/19/2009 10.0 2 2
205 Moon Song 03/18/2009 10.0 2 2
206 Winter 03/15/2009 9.8 5 1
207 Summer Shade 03/15/2009 9.0 2 1
208 Skylark 03/15/2009 10.0 1 0
209 Simplicity 03/14/2009 10.0 1 0
210 Snowdrops 03/14/2009 10.0 1 2
211 Upside Down 03/14/2009 10.0 2 0
212 The Native 03/14/2009 10.0 1 0
213 Search 03/14/2009 10.0 2 0
214 Surprise Suprise 03/14/2009 10.0 1 0
215 Changeover 03/14/2009 10.0 3 1
216 He Is 03/14/2009 10.0 3 0
217 Guide 03/14/2009 10.0 2 1
218 Vow 03/14/2009 10.0 3 0
219 Cats 03/14/2009 9.5 2 1
220 Love After Death 03/14/2009 10.0 1 1
221 The Juveniles 03/14/2009 10.0 2 0
222 Serenade 03/14/2009 10.0 1 0
223 Poppies 03/14/2009 10.0 2 0
224 May 03/14/2009 10.0 1 0
225 Village Tree 03/14/2009 9.5 2 0
226 Sunrise 03/14/2009 10.0 2 1
227 Sparrows 03/14/2009 10.0 3 0
228 Figment 03/14/2009 10.0 2 1
229 A Slow Smoke 03/14/2009 9.8 4 1
230 Time Past 03/14/2009 10.0 2 2
231 Good Night 03/14/2009 10.0 2 1
232 The Satyr 03/14/2009 10.0 1 0
233 Somewhere 03/14/2009 10.0 1 1
234 Formation 03/14/2009 -- 0 1
235 Wildflowers Live On 03/14/2009 10.0 4 2
236 Apple Tree 03/14/2009 10.0 7 2
237 Purer Than White 03/14/2009 10.0 2 0
238 Goodnight Baby Love 03/14/2009 10.0 1 1
239 Storm 03/14/2009 10.0 1 2
240 Headstones 03/14/2009 10.0 1 0
241 Underfoot 03/14/2009 10.0 1 0
242 Fantasy 03/14/2009 10.0 3 1
243 Smile 03/14/2009 10.0 2 2
244 Judas 03/14/2009 10.0 1 0
245 Domestic 03/14/2009 10.0 2 0
246 Ghost 03/14/2009 10.0 2 2
247 Rowley 03/14/2009 -- 0 0
248 Starless 03/14/2009 10.0 2 2
249 Reflection 03/14/2009 -- 0 2
250 Pretty 03/14/2009 9.0 2 1
[Hata Bildir]